Terug naar catalogus

STARLINK-31081

ActiefCommunicatieVLEO
NORAD 58632·PAYLOAD·🇺🇸 United States

Gelanceerd Dec 23, 2023 vanaf Cape Canaveral Space Force Station

Loading…

Volgende Passages (komende 24 uur)

TLE

VersSource: CelesTrak SupGP

Epoch: Sep 15, 2026, 02:42 UTC

1 58632C 23203Q   26258.11298611 -.00009675  00000+0 -35039-3 0  2585
2 58632  42.9994  80.8020 0001518 269.5535 347.5486 15.27586128    14

Volg STARLINK-31081 in realtime met AllMySat

Download on the App Store